TimeEST,TemperatureF,Dew PointF,Humidity,Sea Level PressureIn,VisibilityMPH,Wind Direction,Wind SpeedMPH,Gust SpeedMPH,PrecipitationIn,Events,Conditions,WindDirDegrees,DateUTC
12:34 AM,17.6,15.8,93,30.11,10.0,North,3.5,-,N/A,,Clear,360,2012-12-28 05:34:00
12:55 AM,17.6,15.8,93,30.11,10.0,Calm,Calm,-,N/A,,Clear,0,2012-12-28 05:55:00
1:15 AM,17.6,14.0,86,30.11,10.0,NNE,3.5,-,N/A,,Scattered Clouds,30,2012-12-28 06:15:00
1:34 AM,17.6,14.0,86,30.11,10.0,NNE,4.6,-,N/A,,Mostly Cloudy,30,2012-12-28 06:34:00
1:55 AM,17.6,15.8,93,30.12,10.0,NE,3.5,-,N/A,,Overcast,40,2012-12-28 06:55:00
2:14 AM,17.6,14.0,86,30.12,10.0,ENE,3.5,-,N/A,,Overcast,70,2012-12-28 07:14:00
2:34 AM,17.6,14.0,86,30.13,10.0,Calm,Calm,-,N/A,,Overcast,0,2012-12-28 07:34:00
2:55 AM,15.8,14.0,93,30.13,10.0,Calm,Calm,-,N/A,,Overcast,0,2012-12-28 07:55:00
3:14 AM,15.8,14.0,93,30.13,10.0,Calm,Calm,-,N/A,,Overcast,0,2012-12-28 08:14:00
3:35 AM,15.8,12.2,86,30.12,10.0,Calm,Calm,-,N/A,,Overcast,0,2012-12-28 08:35:00
3:55 AM,15.8,12.2,86,30.13,10.0,Calm,Calm,-,N/A,,Overcast,0,2012-12-28 08:55:00
4:14 AM,15.8,12.2,86,30.13,10.0,Calm,Calm,-,N/A,,Overcast,0,2012-12-28 09:14:00
4:35 AM,15.8,12.2,86,30.13,10.0,Calm,Calm,-,N/A,,Overcast,0,2012-12-28 09:35:00
4:55 AM,15.8,14.0,93,30.13,10.0,Calm,Calm,-,N/A,,Overcast,0,2012-12-28 09:55:00
5:14 AM,17.6,14.0,86,30.12,10.0,Calm,Calm,-,N/A,,Overcast,0,2012-12-28 10:14:00
5:35 AM,17.6,14.0,86,30.12,10.0,Calm,Calm,-,N/A,,Overcast,0,2012-12-28 10:35:00
5:55 AM,17.6,14.0,86,30.12,10.0,Calm,Calm,-,N/A,,Overcast,0,2012-12-28 10:55:00
6:14 AM,17.6,14.0,86,30.12,10.0,Calm,Calm,-,N/A,,Overcast,0,2012-12-28 11:14:00
6:35 AM,17.6,14.0,86,30.12,10.0,Calm,Calm,-,N/A,,Overcast,0,2012-12-28 11:35:00
6:54 AM,17.6,14.0,86,30.11,10.0,Calm,Calm,-,N/A,,Overcast,0,2012-12-28 11:54:00
7:14 AM,17.6,14.0,86,30.11,10.0,Calm,Calm,-,N/A,,Overcast,0,2012-12-28 12:14:00
7:35 AM,17.6,14.0,86,30.11,10.0,Calm,Calm,-,N/A,,Overcast,0,2012-12-28 12:35:00
7:54 AM,17.6,15.8,93,30.11,10.0,Calm,Calm,-,N/A,,Overcast,0,2012-12-28 12:54:00
8:15 AM,17.6,15.8,93,30.11,10.0,Calm,Calm,-,N/A,,Overcast,0,2012-12-28 13:15:00
8:54 AM,17.6,15.8,93,30.11,10.0,Calm,Calm,-,N/A,,Overcast,0,2012-12-28 13:54:00
9:15 AM,17.6,15.8,93,30.11,10.0,Calm,Calm,-,N/A,,Overcast,0,2012-12-28 14:15:00
9:35 AM,17.6,15.8,93,30.12,10.0,Calm,Calm,-,N/A,,Overcast,0,2012-12-28 14:35:00
9:54 AM,17.6,15.8,93,30.12,10.0,Calm,Calm,-,N/A,,Overcast,0,2012-12-28 14:54:00
10:15 AM,17.6,15.8,93,30.12,10.0,Calm,Calm,-,N/A,,Overcast,0,2012-12-28 15:15:00
10:35 AM,17.6,15.8,93,30.12,10.0,Calm,Calm,-,N/A,,Overcast,0,2012-12-28 15:35:00
10:54 AM,17.6,15.8,93,30.12,10.0,Calm,Calm,-,N/A,,Overcast,0,2012-12-28 15:54:00
11:15 AM,19.4,15.8,86,30.11,10.0,Calm,Calm,-,N/A,,Overcast,0,2012-12-28 16:15:00
11:34 AM,19.4,15.8,86,30.10,10.0,Calm,Calm,-,N/A,,Overcast,0,2012-12-28 16:34:00
11:55 AM,19.4,17.6,93,30.10,10.0,Calm,Calm,-,N/A,,Overcast,0,2012-12-28 16:55:00
12:15 PM,21.2,17.6,86,30.09,10.0,Calm,Calm,-,N/A,,Overcast,0,2012-12-28 17:15:00
12:34 PM,21.2,17.6,86,30.09,10.0,Calm,Calm,-,N/A,,Overcast,0,2012-12-28 17:34:00
1:15 PM,21.2,17.6,86,30.07,10.0,Calm,Calm,-,N/A,,Overcast,0,2012-12-28 18:15:00
1:34 PM,21.2,17.6,86,30.06,10.0,Calm,Calm,-,N/A,,Overcast,0,2012-12-28 18:34:00
1:55 PM,23.0,17.6,80,30.06,10.0,Calm,Calm,-,N/A,,Overcast,0,2012-12-28 18:55:00
2:15 PM,23.0,17.6,80,30.05,10.0,Calm,Calm,-,N/A,,Overcast,0,2012-12-28 19:15:00
2:34 PM,23.0,17.6,80,30.05,10.0,Calm,Calm,-,N/A,,Overcast,0,2012-12-28 19:34:00
2:55 PM,23.0,17.6,80,30.04,10.0,West,3.5,-,N/A,,Overcast,280,2012-12-28 19:55:00
3:14 PM,23.0,17.6,80,30.04,10.0,Calm,Calm,-,N/A,,Overcast,0,2012-12-28 20:14:00
3:35 PM,23.0,17.6,80,30.03,10.0,Calm,Calm,-,N/A,,Overcast,0,2012-12-28 20:35:00
3:55 PM,23.0,17.6,80,30.03,10.0,Calm,Calm,-,N/A,,Overcast,0,2012-12-28 20:55:00
4:14 PM,23.0,17.6,80,30.03,10.0,ENE,3.5,-,N/A,,Overcast,60,2012-12-28 21:14:00
4:35 PM,23.0,17.6,80,30.03,10.0,Calm,Calm,-,N/A,,Overcast,0,2012-12-28 21:35:00
4:55 PM,23.0,17.6,80,30.02,10.0,Calm,Calm,-,N/A,,Overcast,0,2012-12-28 21:55:00
5:14 PM,23.0,19.4,86,30.02,10.0,Calm,Calm,-,N/A,,Overcast,0,2012-12-28 22:14:00
5:35 PM,23.0,19.4,86,30.03,10.0,East,3.5,-,N/A,,Overcast,80,2012-12-28 22:35:00
5:55 PM,21.2,17.6,86,30.03,10.0,Calm,Calm,-,N/A,,Overcast,0,2012-12-28 22:55:00
6:14 PM,21.2,19.4,93,30.03,10.0,East,3.5,-,N/A,,Overcast,80,2012-12-28 23:14:00
6:54 PM,21.2,17.6,86,30.03,10.0,ENE,3.5,-,N/A,,Overcast,70,2012-12-28 23:54:00
7:15 PM,21.2,17.6,86,30.04,10.0,ENE,3.5,-,N/A,,Overcast,70,2012-12-29 00:15:00
7:35 PM,21.2,17.6,86,30.04,10.0,Calm,Calm,-,N/A,,Overcast,0,2012-12-29 00:35:00
7:54 PM,21.2,17.6,86,30.04,10.0,Calm,Calm,-,N/A,,Overcast,0,2012-12-29 00:54:00
8:15 PM,21.2,17.6,86,30.04,10.0,Calm,Calm,-,N/A,,Overcast,0,2012-12-29 01:15:00
8:35 PM,21.2,17.6,86,30.03,10.0,Calm,Calm,-,N/A,,Overcast,0,2012-12-29 01:35:00
8:54 PM,21.2,17.6,86,30.03,10.0,Calm,Calm,-,N/A,,Overcast,0,2012-12-29 01:54:00
9:15 PM,21.2,17.6,86,30.02,10.0,Calm,Calm,-,N/A,,Overcast,0,2012-12-29 02:15:00
9:35 PM,21.2,17.6,86,30.01,10.0,Calm,Calm,-,N/A,,Overcast,0,2012-12-29 02:35:00
9:54 PM,19.4,17.6,93,30.01,10.0,Calm,Calm,-,N/A,,Overcast,0,2012-12-29 02:54:00
10:15 PM,19.4,17.6,93,30.01,10.0,Calm,Calm,-,N/A,,Overcast,0,2012-12-29 03:15:00
10:35 PM,19.4,17.6,93,30.01,10.0,Calm,Calm,-,N/A,,Overcast,0,2012-12-29 03:35:00
10:54 PM,19.4,17.6,93,30.01,10.0,Calm,Calm,-,N/A,,Overcast,0,2012-12-29 03:54:00
11:15 PM,19.4,17.6,93,30.00,10.0,Calm,Calm,-,N/A,,Overcast,0,2012-12-29 04:15:00
11:34 PM,19.4,17.6,93,30.00,10.0,Calm,Calm,-,N/A,,Overcast,0,2012-12-29 04:34:00
11:55 PM,19.4,17.6,93,30.00,10.0,Calm,Calm,-,N/A,,Overcast,0,2012-12-29 04:55:00